Wind_Speed
41 45 38 32 29 28 27 32 33 25 18 16 14 15 16 15 17 20 25 32 35 34 32 32 31 28 26 27 28 28 26 22 20 22 24 23 21 19 20 20 19 18 16 14 14 16 18 20 21 22 23 24 22 21 21 20 19 17 16 15 15 17 20
36 41 41 35 30 30 26 23 29 31 24 23 22 17 17 18 19 21 27 32 34 35 35 34 33 31 30 30 29 29 28 25 22 22 23 24 23 20 20 20 17 15 14 13 14 16 18 21 21 21 23 23 21 22 22 19 19 18 15 15 15 16 18
33 38 43 42 35 32 28 20 23 32 30 29 29 25 22 21 20 22 26 28 30 34 37 38 38 34 33 32 29 29 30 27 24 22 22 24 24 23 21 18 15 14 16 16 18 19 18 18 20 21 22 21 20 23 23 19 18 18 16 15 16 16 17
34 36 38 44 44 39 33 29 31 35 35 31 28 26 26 22 18 22 28 30 32 35 35 38 40 39 39 35 29 29 30 28 25 22 23 24 24 26 25 22 17 13 15 18 19 19 17 16 18 19 18 18 20 24 24 20 19 20 18 17 18 18 18
35 41 40 41 43 42 37 31 29 31 35 34 27 22 24 23 20 23 28 32 35 37 36 37 38 40 40 35 28 28 30 29 26 23 24 24 24 26 26 24 20 15 13 15 16 16 18 18 19 18 15 13 18 22 23 21 20 20 19 19 19 19 18
25 34 39 40 41 44 40 31 26 25 29 31 25 22 22 21 22 24 25 34 37 36 35 36 37 38 37 33 29 30 30 30 28 25 25 25 25 27 26 23 21 18 16 14 14 17 19 18 18 18 15 12 14 19 22 21 19 20 20 20 21 19 18
9 13 27 40 45 48 46 42 37 29 29 29 21 18 23 24 24 24 24 32 37 35 34 36 37 36 34 31 30 31 31 31 29 27 27 27 26 27 26 23 23 21 18 16 16 18 19 18 18 18 15 13 12 14 19 21 21 22 22 22 22 20 19
10 9 26 42 44 46 48 47 43 32 28 29 21 17 24 25 24 26 28 30 32 33 33 37 38 35 32 30 31 32 31 30 30 29 29 29 28 27 26 25 25 24 22 19 18 19 19 19 19 18 16 15 14 12 14 19 23 25 25 24 22 21 21
11 13 28 38 40 44 44 43 44 37 29 29 29 28 30 29 28 30 33 34 34 33 32 36 37 35 32 29 31 33 31 30 30 30 30 30 30 29 27 27 27 26 24 22 21 22 21 20 21 20 18 17 16 13 11 14 20 23 25 24 21 20 22
18 17 22 25 31 38 39 39 41 37 31 32 36 37 35 35 35 35 39 39 37 34 34 36 36 34 32 29 29 31 31 31 31 31 31 32 32 31 30 29 28 27 26 25 24 24 23 22 22 21 20 19 18 15 13 13 16 20 22 22 21 21 22
30 25 21 23 29 32 36 42 41 36 35 36 39 41 39 38 37 37 41 41 37 35 35 36 37 35 33 31 30 30 31 31 32 33 33 33 33 33 32 31 30 29 28 27 26 26 25 25 23 22 22 22 20 19 17 13 11 14 18 20 21 22 23
37 31 26 27 31 28 28 35 38 39 42 41 41 43 40 37 37 36 38 42 40 38 37 36 36 34 31 30 31 33 32 31 32 33 34 34 34 35 34 33 32 31 30 29 28 28 28 27 26 23 23 23 22 21 21 19 13 11 14 19 23 24 23
38 35 29 27 30 28 22 23 28 34 42 44 45 45 40 35 37 39 38 42 44 42 40 39 37 34 30 28 30 33 33 31 31 33 35 35 36 36 36 36 35 33 32 30 30 29 29 29 28 27 25 24 24 23 23 24 21 15 13 15 19 22 22
36 36 32 26 27 30 26 25 30 37 43 47 48 46 40 33 36 41 42 42 45 43 42 43 41 37 33 29 28 30 31 31 32 33 35 37 37 38 38 39 38 36 34 33 32 32 31 30 29 29 27 25 25 25 24 24 24 21 17 13 12 15 18
38 39 38 31 28 30 31 29 33 42 46 46 47 47 44 41 43 47 47 45 45 44 43 44 44 40 36 33 31 30 28 29 32 34 35 37 38 38 39 40 41 40 38 36 34 34 34 33 32 31 30 28 27 26 26 25 23 22 21 19 15 14 16
36 37 38 36 32 31 32 30 32 39 41 41 43 46 48 49 50 50 49 48 47 45 44 45 44 42 40 37 35 34 31 29 30 33 36 38 39 39 39 40 41 42 41 39 37 36 36 35 35 34 33 32 30 28 28 28 27 25 24 23 21 19 17
34 31 29 34 38 36 35 33 33 36 38 37 38 42 47 49 49 48 49 48 48 47 47 46 44 44 42 40 39 39 37 34 32 33 35 38 40 40 40 41 42 42 43 41 40 39 38 37 37 36 36 35 33 32 31 31 30 29 29 27 26 24 23
31 28 23 29 40 42 39 37 33 32 34 33 33 39 46 47 46 47 48 47 46 47 48 48 47 46 43 40 39 39 41 40 38 36 37 38 40 41 42 42 43 43 44 43 42 41 40 39 39 38 38 37 36 35 34 33 33 33 33 32 30 29 28
25 25 25 30 38 41 42 42 38 35 35 35 37 43 47 45 43 43 45 46 46 45 46 47 48 47 44 40 39 39 40 41 42 41 40 40 41 42 43 43 44 45 45 45 45 44 42 41 41 40 40 40 39 38 37 36 36 36 36 36 34 33 33
24 24 27 30 32 37 42 45 42 39 36 35 38 42 45 43 41 39 41 45 46 45 46 48 48 47 45 42 41 41 40 40 41 42 42 42 42 43 44 44 45 46 47 47 47 47 45 45 44 44 43 42 42 41 40 39 39 38 38 38 38 38 37
25 24 26 26 27 31 37 41 42 42 40 38 36 37 40 41 41 40 40 43 45 44 45 46 47 48 46 44 43 43 42 42 42 42 41 43 44 45 45 45 45 46 48 48 49 49 48 47 47 46 46 46 45 44 44 43 42 41 41 41 41 40 40
24 25 27 27 26 27 31 36 39 41 42 41 39 37 39 41 41 41 42 43 44 44 44 45 46 47 47 45 43 42 43 44 44 44 43 43 44 45 46 46 45 46 48 49 50 50 50 49 49 48 48 48 48 47 47 46 45 45 44 43 43 43 43
24 27 30 30 28 28 29 31 34 37 40 41 39 38 40 40 40 41 42 44 44 44 44 46 46 47 49 49 46 43 45 47 46 46 45 44 43 45 45 45 45 46 48 49 49 50 50 50 50 50 49 49 49 49 49 49 48 47 47 47 46 46 45
24 27 29 30 31 32 31 29 30 33 36 38 38 40 42 42 40 40 41 43 45 45 46 47 47 47 49 51 52 49 47 48 48 46 46 46 45 46 46 46 46 47 48 48 49 49 49 50 51 50 49 49 49 50 50 50 49 49 49 49 49 49 48
26 27 28 29 32 33 33 33 33 32 32 34 37 40 42 43 43 42 41 43 45 47 48 49 51 51 48 49 54 54 50 49 48 47 47 47 48 48 48 47 48 48 48 48 49 49 49 49 50 50 49 48 49 49 50 50 50 49 49 50 51 51 51
29 29 29 31 33 32 32 34 35 34 32 33 35 38 40 42 44 44 44 45 46 48 48 50 55 56 52 50 54 56 53 51 50 49 48 48 49 49 50 49 49 49 49 49 49 50 50 50 50 50 49 49 48 49 50 50 50 50 50 50 51 52 52
27 30 33 34 35 33 32 33 36 36 35 34 34 35 38 41 43 44 45 47 48 48 48 48 51 54 53 51 52 53 53 52 51 51 51 52 52 52 52 52 51 50 50 50 50 51 52 52 51 51 51 50 50 50 50 50 50 50 50 50 51 52 53
24 27 32 35 36 35 35 35 35 35 36 35 35 35 36 37 39 41 44 46 47 48 47 46 47 49 50 49 49 52 55 55 54 53 53 54 54 54 54 54 53 52 52 52 52 53 53 53 53 53 52 52 52 51 51 51 51 51 51 51 52 52 53
26 26 27 30 32 34 37 38 37 35 35 36 37 37 36 35 37 39 42 44 45 46 46 46 46 48 49 49 48 50 53 55 56 55 54 53 54 55 56 56 56 56 55 55 54 55 55 55 55 55 54 54 54 53 53 53 53 53 53 52 52 52 53
29 28 28 29 30 33 35 37 38 39 38 38 38 39 39 37 37 39 41 42 42 43 44 45 45 46 47 49 49 49 50 53 54 55 55 55 55 55 56 56 57 57 57 57 57 57 57 58 58 57 57 56 56 56 56 55 55 55 55 54 54 53 54
31 31 31 31 32 33 34 34 35 38 40 41 41 42 42 41 39 40 41 41 41 42 43 44 44 44 45 46 47 47 48 51 52 53 53 54 55 55 56 56 57 57 58 58 58 58 59 60 60 60 60 59 59 59 59 58 58 58 57 57 56 55 55
33 33 32 32 33 34 35 35 34 34 36 39 40 42 44 45 43 42 42 43 43 44 44 44 44 43 43 44 45 46 47 48 50 51 51 52 53 54 56 56 57 57 58 59 59 59 60 61 62 62 62 62 62 62 62 61 61 61 60 60 59 58 58
32 32 33 34 36 36 37 37 37 36 36 36 37 38 41 43 44 44 44 45 45 45 45 45 45 45 45 44 44 45 45 46 47 49 50 50 52 53 54 56 57 57 58 58 59 60 60 61 62 63 63 63 64 64 64 64 64 63 63 63 62 61 61
31 31 32 34 36 37 38 39 39 40 39 38 36 36 36 37 39 41 42 44 46 46 46 47 47 47 47 46 46 46 46 46 46 48 48 49 50 51 52 54 55 57 57 58 59 59 60 60 61 62 63 64 65 65 66 66 66 66 65 65 65 64 64
32 31 33 35 36 37 39 40 40 40 40 39 37 37 36 36 35 36 37 38 40 43 44 45 46 47 48 48 48 47 47 47 48 48 49 49 49 50 51 52 53 54 56 57 58 58 59 60 60 61 63 64 65 66 67 67 68 68 68 67 67 66 67
34 32 34 37 37 37 37 38 40 40 40 39 38 38 38 38 37 36 36 36 36 37 38 40 41 43 44 45 46 47 48 48 49 49 50 50 51 51 51 52 53 53 54 55 57 58 58 59 60 60 61 63 64 65 66 67 68 69 69 69 69 68 68
36 34 34 36 37 36 36 36 38 39 40 40 40 40 40 40 39 39 39 38 36 36 36 37 37 38 39 39 41 43 44 45 46 47 48 49 50 51 51 52 53 54 54 55 56 57 58 59 60 60 61 62 63 64 66 67 68 69 70 70 70 70 70
Wind_Direction
209 209 202 195 196 198 208 212 211 209 198 193 214 233 225 216 221 218 215 220 226 232 239 242 239 232 230 236 242 245 247 250 244 234 231 231 232 235 233 231 234 232 231 234 239 244 246 242 240 239 234 228 227 226 225 225 223 225 227 227 232 233 230
217 208 201 203 199 192 201 215 221 220 204 189 194 213 223 219 215 221 231 233 233 236 239 244 244 237 236 242 245 244 244 249 252 244 238 235 234 238 235 226 223 225 225 227 230 237 245 247 244 240 237 234 234 233 233 231 225 225 229 228 231 233 230
223 211 205 208 202 196 196 194 211 218 210 200 193 190 201 211 210 217 234 243 242 242 243 245 248 246 244 244 243 243 242 245 251 251 247 244 242 241 238 229 219 214 217 223 226 227 238 251 246 236 231 230 230 231 233 238 238 237 236 231 230 231 228
224 215 209 211 208 203 196 189 197 205 206 205 202 197 193 192 198 215 230 236 234 235 239 241 244 245 244 242 241 243 243 241 245 247 245 245 247 245 242 242 240 229 221 225 231 233 242 255 246 234 233 230 230 232 229 228 234 239 239 234 229 228 227
222 217 209 209 212 210 204 201 203 207 207 201 198 205 199 190 192 208 229 236 230 230 235 238 241 241 242 242 244 247 244 238 239 242 242 243 246 247 245 246 249 251 242 235 240 244 250 258 249 243 250 246 238 238 233 228 229 232 237 239 234 229 227
225 222 213 208 210 210 208 208 207 210 212 202 198 208 210 207 196 194 227 244 239 235 238 242 244 243 243 244 245 247 245 239 236 237 240 241 243 246 247 246 248 253 254 248 246 246 251 260 253 247 259 267 253 241 233 234 236 232 234 239 236 233 231
214 215 213 211 211 211 210 211 209 210 210 202 197 209 218 218 206 203 231 244 242 242 241 243 245 244 245 247 243 243 244 241 238 236 237 239 242 245 246 247 248 248 250 250 249 250 256 264 259 253 262 273 267 246 231 233 239 238 235 230 228 230 232
169 180 209 212 213 215 216 216 213 208 208 205 199 212 222 216 209 224 240 239 241 247 243 241 244 244 247 247 241 240 242 242 240 237 236 236 240 244 246 248 249 248 249 251 249 248 251 258 260 260 265 266 262 256 241 234 235 237 234 228 225 226 227
177 208 219 214 214 216 216 219 218 210 203 201 200 210 220 210 204 223 236 235 239 245 242 242 243 243 245 243 238 237 237 237 238 237 237 236 237 241 242 246 250 251 253 254 252 246 244 249 256 259 263 263 257 257 258 243 235 236 235 230 225 221 222
193 213 226 221 219 219 214 216 220 214 205 201 201 207 214 208 205 217 226 229 234 238 239 242 242 241 242 239 237 237 235 234 234 235 237 238 238 240 241 243 248 251 254 257 257 254 250 250 255 258 260 262 258 256 261 256 243 240 235 228 221 218 221
210 208 216 219 218 218 218 217 215 211 208 203 201 207 211 209 211 221 224 223 231 236 235 238 241 242 242 239 236 235 234 232 231 232 234 237 238 240 241 243 246 249 252 255 258 259 258 255 254 257 259 261 262 258 255 255 249 239 232 226 223 221 222
221 214 212 218 217 213 219 222 218 218 218 210 205 208 210 208 214 226 226 220 226 236 234 234 238 238 238 237 235 234 234 232 231 231 232 234 236 237 240 242 244 246 248 250 254 257 259 257 255 254 253 255 259 258 254 252 252 239 224 223 224 222 221
222 221 218 222 220 213 210 211 214 223 225 220 218 217 212 211 218 225 224 220 223 232 234 233 234 232 231 233 233 234 235 233 231 230 229 231 234 235 237 239 241 243 244 246 248 250 253 256 257 255 251 250 254 256 256 256 256 248 227 220 224 224 225
218 219 218 219 216 209 203 199 209 223 223 219 221 219 213 216 226 225 223 223 225 230 234 233 233 232 231 230 232 234 234 232 230 229 228 229 232 234 236 237 239 241 242 243 244 245 247 250 253 253 252 251 252 254 256 258 260 259 251 242 240 239 235
221 219 217 217 215 210 205 206 217 226 226 222 222 217 211 216 226 227 227 230 230 230 233 233 234 235 233 231 231 232 233 232 230 228 226 226 228 232 234 236 238 239 241 241 241 242 244 245 247 249 249 249 251 253 254 256 259 262 260 258 258 253 246
226 225 222 221 222 218 211 214 225 227 226 227 226 220 215 220 228 231 231 233 233 233 235 234 235 238 237 234 232 232 232 231 231 230 227 225 226 229 231 234 237 239 240 241 241 241 242 243 245 247 249 250 250 252 254 255 256 257 258 259 258 254 249
225 226 224 223 225 224 219 223 233 232 227 227 229 225 221 223 228 231 233 234 234 235 236 236 236 238 240 238 235 234 233 231 230 231 230 228 227 228 230 232 235 238 240 241 242 241 241 242 243 245 248 250 251 252 254 255 256 257 257 258 259 257 253
224 225 226 226 227 227 226 227 233 235 229 226 228 228 225 224 227 230 232 234 234 234 236 238 238 238 239 239 237 235 235 234 232 231 231 230 229 228 229 231 233 236 238 240 242 242 241 241 242 243 245 247 249 251 252 254 255 256 257 258 258 258 257
223 223 228 232 229 228 229 228 230 235 233 228 229 231 230 228 229 231 233 235 235 236 237 238 239 239 237 236 236 235 236 236 235 233 232 230 230 230 229 229 231 233 236 238 240 241 241 241 241 242 244 244 246 249 250 252 252 254 256 257 257 258 258
222 225 233 238 236 233 232 230 231 235 236 233 234 235 234 232 232 232 233 235 237 238 238 238 238 239 238 236 236 236 237 237 236 235 234 232 231 231 230 230 230 232 234 237 238 240 241 241 241 242 243 244 245 247 249 250 251 252 254 256 257 258 258
224 227 236 240 239 237 235 233 233 235 236 234 233 235 234 232 231 231 230 232 235 236 239 240 239 239 239 237 234 234 236 237 236 236 235 234 232 232 232 232 232 232 234 236 238 240 241 242 242 243 244 245 246 246 248 249 251 252 253 255 257 258 258
227 225 233 237 237 238 236 234 233 236 238 236 234 236 236 233 232 232 230 231 234 234 236 239 239 238 239 237 234 233 236 237 236 235 236 235 234 233 233 233 234 234 235 236 238 239 241 243 243 243 244 246 246 247 248 248 250 251 253 254 255 257 258
231 228 232 237 239 241 238 235 233 234 238 238 235 235 237 233 232 233 232 232 235 235 235 237 238 238 239 239 235 233 235 236 236 236 237 237 237 237 235 235 236 237 236 236 238 239 240 242 244 244 244 245 246 248 248 248 249 250 252 254 255 256 257
234 234 235 237 241 241 239 238 236 234 236 237 235 235 235 233 232 232 231 232 234 235 237 237 236 236 238 240 238 235 235 236 237 239 240 241 242 242 239 238 240 240 238 237 238 239 240 242 243 244 245 245 246 247 248 248 249 249 250 252 254 255 256
235 237 237 239 242 242 239 239 240 238 239 239 237 236 236 234 232 231 231 232 233 234 237 239 239 237 238 242 242 238 236 237 239 242 244 244 245 246 244 243 243 242 241 241 241 241 241 242 243 244 245 245 246 246 247 248 248 248 248 250 251 253 254
235 236 237 239 241 241 241 243 244 243 242 241 240 240 239 236 234 232 233 235 236 235 236 239 241 241 241 243 244 242 240 241 242 244 245 246 246 247 247 247 246 245 244 244 244 244 243 243 244 244 245 246 245 246 247 247 248 248 247 248 249 250 252
240 237 236 238 240 240 241 244 245 245 244 244 245 245 243 241 239 237 237 239 239 238 238 240 242 242 242 244 246 245 244 244 244 244 245 246 246 246 247 248 248 248 248 247 246 246 246 245 245 246 246 247 246 246 247 247 247 247 247 247 248 248 249
247 243 240 241 242 242 242 243 245 247 247 247 247 246 244 243 242 242 242 242 242 242 242 243 245 244 243 244 245 245 245 245 245 244 245 246 247 248 248 248 248 249 249 249 249 248 248 248 248 248 248 248 248 248 247 247 247 247 247 247 247 248 248
249 248 247 247 246 245 244 244 246 247 247 247 246 246 244 243 241 242 243 243 244 244 244 244 246 246 244 245 245 244 244 245 245 245 245 245 247 248 248 249 249 249 250 250 250 250 250 249 249 250 250 250 250 250 250 249 249 248 247 247 247 247 248
249 248 248 249 248 247 246 246 246 246 246 245 245 245 244 243 241 241 242 243 244 245 245 245 245 245 246 246 246 246 245 245 246 245 245 245 246 247 248 249 249 250 251 251 251 252 252 251 251 251 251 251 251 251 251 251 251 250 250 249 248 247 248
250 248 247 248 248 249 249 249 248 248 247 247 246 247 246 245 244 244 244 243 243 244 245 245 245 245 246 246 247 247 247 247 247 247 247 247 247 247 248 248 248 249 251 251 252 252 253 253 252 252 252 252 252 252 252 252 252 252 252 251 250 249 249
252 250 249 249 249 250 250 249 249 249 249 248 247 247 248 247 246 245 245 244 243 243 244 245 245 245 245 246 247 247 247 247 248 248 248 248 248 248 248 248 249 249 250 251 252 252 253 253 253 254 254 253 253 253 253 253 253 253 253 253 252 252 251
253 251 250 249 248 248 248 248 248 247 248 248 248 247 248 248 247 246 245 245 244 243 243 244 245 246 246 246 246 247 248 248 249 249 250 250 249 249 249 249 249 250 250 251 252 252 253 253 254 254 255 255 254 254 254 254 254 254 254 254 253 253 252
254 252 251 249 248 248 247 246 247 248 248 249 249 248 248 249 249 247 245 245 245 245 245 245 246 247 247 247 247 247 248 249 250 250 251 251 252 252 251 251 251 250 250 251 251 252 253 253 254 254 255 255 255 255 255 255 254 254 254 254 254 254 254
254 254 254 252 251 251 250 247 246 248 249 249 249 248 247 247 248 248 246 245 245 245 246 246 246 247 248 248 249 249 249 249 250 251 252 253 253 254 254 253 253 252 252 252 251 251 252 252 253 253 254 255 255 256 255 255 255 255 254 254 254 254 254
256 256 256 254 252 252 252 251 249 247 248 249 249 249 247 246 246 246 246 245 245 245 246 246 246 247 247 248 249 250 250 250 250 251 252 253 254 255 255 255 255 255 255 254 254 253 252 252 252 252 253 253 254 255 255 255 255 254 254 254 254 254 254
256 255 255 255 253 252 253 253 251 248 247 247 248 249 249 249 247 246 246 246 246 246 247 247 247 247 247 248 249 250 251 251 252 252 253 253 254 255 256 256 257 258 258 258 257 257 256 255 255 254 254 254 254 254 255 255 255 254 254 254 253 253 253
Height
5819 5824 5830 5833 5836 5840 5843 5845 5849 5853 5858 5864 5868 5869 5870 5873 5875 5877 5876 5873 5872 5874 5875 5876 5878 5881 5883 5884 5885 5886 5888 5890 5894 5897 5900 5901 5903 5905 5907 5907 5908 5910 5913 5915 5916 5916 5916 5917 5918 5920 5920 5919 5921 5922 5923 5924 5927 5929 5929 5931 5934 5936 5938
5819 5822 5827 5829 5833 5837 5839 5843 5847 5851 5854 5858 5862 5866 5869 5871 5874 5875 5873 5871 5872 5873 5873 5873 5875 5878 5881 5882 5883 5885 5887 5888 5890 5893 5896 5898 5901 5903 5905 5906 5908 5910 5912 5913 5914 5914 5914 5914 5916 5919 5920 5921 5924 5924 5924 5926 5928 5929 5929 5930 5932 5934 5936
5816 5819 5823 5825 5831 5834 5836 5840 5844 5847 5851 5854 5856 5860 5864 5868 5872 5873 5870 5870 5872 5871 5871 5872 5873 5876 5878 5879 5881 5883 5885 5887 5888 5890 5893 5894 5896 5900 5903 5904 5907 5911 5912 5913 5913 5914 5915 5915 5916 5918 5919 5920 5922 5921 5923 5927 5930 5929 5928 5929 5930 5932 5934
5812 5815 5820 5823 5827 5830 5831 5834 5836 5840 5846 5851 5855 5859 5861 5864 5869 5871 5868 5866 5866 5866 5867 5869 5869 5871 5872 5876 5880 5882 5883 5886 5888 5889 5890 5892 5893 5895 5898 5900 5902 5907 5910 5910 5911 5913 5914 5914 5914 5915 5916 5918 5919 5918 5920 5924 5926 5926 5927 5928 5929 5930 5932
5808 5811 5817 5821 5826 5830 5831 5833 5837 5840 5843 5847 5853 5858 5860 5861 5865 5867 5865 5862 5860 5861 5863 5865 5866 5867 5869 5875 5880 5880 5881 5883 5886 5887 5888 5890 5892 5892 5894 5896 5898 5902 5905 5907 5909 5910 5910 5909 5908 5909 5912 5915 5916 5917 5919 5921 5922 5924 5925 5927 5928 5930 5931
5807 5809 5814 5819 5822 5827 5830 5834 5838 5841 5844 5847 5851 5855 5859 5860 5862 5864 5862 5860 5859 5860 5862 5863 5864 5866 5869 5875 5878 5877 5878 5880 5883 5886 5886 5888 5889 5890 5892 5894 5897 5899 5902 5905 5906 5906 5906 5906 5905 5906 5909 5913 5914 5915 5918 5920 5922 5923 5924 5926 5929 5930 5931
5807 5809 5812 5815 5817 5821 5824 5827 5833 5838 5842 5846 5850 5855 5857 5858 5860 5860 5858 5857 5858 5859 5862 5862 5862 5864 5869 5873 5875 5875 5875 5877 5880 5883 5885 5886 5887 5888 5891 5894 5896 5898 5901 5903 5904 5904 5905 5905 5904 5905 5908 5911 5912 5915 5917 5919 5921 5922 5923 5926 5929 5930 5930
5805 5807 5808 5811 5815 5818 5821 5824 5829 5835 5841 5846 5850 5853 5853 5855 5858 5857 5853 5855 5855 5856 5859 5859 5859 5863 5867 5870 5871 5871 5873 5875 5877 5880 5882 5884 5886 5887 5890 5892 5893 5896 5899 5902 5903 5903 5904 5904 5904 5905 5907 5909 5912 5914 5917 5918 5918 5919 5921 5923 5925 5926 5927
5804 5805 5806 5809 5812 5814 5819 5824 5826 5831 5837 5841 5843 5845 5846 5850 5854 5851 5847 5849 5851 5851 5854 5856 5857 5860 5863 5866 5867 5868 5870 5872 5874 5877 5880 5882 5884 5886 5888 5890 5891 5893 5896 5898 5900 5901 5902 5904 5904 5905 5906 5908 5910 5913 5915 5915 5916 5917 5919 5920 5920 5921 5923
5802 5804 5805 5807 5809 5812 5817 5821 5824 5830 5834 5835 5836 5838 5840 5845 5848 5844 5842 5844 5845 5847 5850 5852 5853 5856 5859 5863 5864 5865 5868 5870 5872 5874 5877 5879 5882 5884 5886 5888 5890 5891 5893 5895 5896 5898 5901 5903 5904 5904 5905 5907 5908 5911 5912 5913 5914 5915 5916 5917 5918 5919 5922
5799 5800 5801 5803 5807 5812 5815 5816 5820 5825 5828 5830 5832 5834 5835 5840 5842 5839 5839 5841 5842 5844 5847 5848 5849 5853 5856 5859 5861 5862 5864 5867 5870 5872 5874 5877 5879 5881 5883 5885 5887 5889 5891 5892 5893 5895 5897 5899 5901 5903 5904 5905 5906 5909 5911 5912 5913 5913 5914 5916 5918 5921 5923
5797 5798 5799 5802 5805 5808 5810 5814 5819 5820 5821 5825 5828 5830 5832 5836 5837 5835 5836 5839 5839 5840 5844 5845 5847 5850 5854 5856 5858 5859 5861 5864 5867 5870 5872 5875 5877 5879 5881 5883 5885 5887 5889 5890 5891 5893 5894 5895 5897 5900 5902 5904 5905 5906 5908 5910 5912 5912 5913 5915 5917 5919 5921
5795 5797 5799 5802 5804 5805 5806 5812 5815 5815 5817 5822 5825 5827 5832 5834 5832 5830 5833 5836 5836 5837 5840 5842 5844 5848 5851 5854 5855 5856 5859 5862 5865 5867 5870 5872 5874 5877 5879 5881 5882 5884 5886 5888 5890 5891 5892 5893 5895 5896 5899 5901 5903 5904 5906 5907 5908 5911 5912 5913 5914 5915 5916
5790 5793 5796 5798 5800 5802 5803 5806 5808 5807 5810 5816 5820 5825 5832 5831 5827 5828 5831 5833 5833 5834 5837 5839 5841 5845 5849 5851 5853 5854 5857 5859 5861 5863 5866 5868 5871 5873 5876 5878 5880 5881 5883 5885 5887 5888 5890 5892 5893 5894 5896 5898 5900 5902 5904 5904 5905 5907 5909 5910 5911 5911 5912
5787 5790 5793 5795 5797 5799 5801 5803 5803 5803 5807 5812 5816 5821 5826 5824 5821 5824 5829 5829 5830 5832 5833 5835 5838 5842 5845 5849 5850 5852 5854 5856 5857 5860 5862 5865 5867 5869 5872 5874 5876 5878 5880 5881 5883 5885 5887 5888 5890 5892 5894 5896 5898 5899 5901 5902 5903 5905 5906 5908 5908 5908 5909
5786 5788 5790 5792 5793 5795 5798 5800 5799 5800 5805 5809 5811 5815 5818 5818 5818 5822 5824 5825 5827 5830 5830 5833 5836 5838 5841 5845 5847 5849 5851 5853 5855 5857 5859 5861 5864 5866 5868 5871 5873 5874 5876 5878 5880 5882 5883 5885 5887 5888 5890 5893 5895 5897 5898 5899 5901 5902 5904 5905 5907 5907 5907
5783 5785 5787 5788 5788 5791 5795 5796 5795 5798 5802 5805 5807 5809 5812 5814 5815 5817 5819 5821 5824 5826 5826 5829 5833 5834 5837 5840 5844 5846 5848 5850 5852 5854 5856 5858 5860 5863 5865 5867 5869 5871 5873 5874 5876 5878 5880 5882 5884 5885 5887 5889 5891 5893 5895 5896 5898 5899 5900 5902 5904 5905 5905
5780 5782 5783 5783 5784 5788 5790 5792 5793 5795 5797 5801 5803 5803 5805 5809 5811 5813 5815 5818 5820 5821 5822 5825 5828 5830 5833 5837 5839 5842 5844 5846 5848 5851 5853 5855 5857 5859 5862 5864 5866 5868 5869 5871 5873 5874 5877 5879 5880 5882 5884 5886 5888 5890 5891 5893 5894 5895 5897 5899 5901 5902 5903
5777 5779 5779 5779 5781 5783 5784 5787 5790 5792 5794 5797 5797 5798 5802 5806 5809 5811 5813 5815 5817 5818 5819 5821 5823 5826 5830 5833 5834 5837 5839 5841 5844 5846 5848 5851 5853 5855 5858 5860 5862 5864 5866 5867 5869 5871 5873 5875 5876 5878 5880 5882 5884 5886 5888 5890 5891 5893 5894 5895 5897 5899 5900
5774 5775 5775 5776 5778 5779 5781 5785 5789 5789 5791 5793 5794 5795 5799 5802 5805 5807 5810 5811 5813 5814 5815 5816 5818 5821 5824 5828 5830 5832 5835 5836 5839 5841 5844 5846 5849 5851 5854 5856 5858 5860 5862 5863 5865 5867 5869 5870 5872 5874 5876 5878 5880 5882 5884 5886 5887 5889 5891 5892 5894 5896 5897
5771 5773 5773 5773 5775 5776 5778 5782 5784 5784 5786 5788 5790 5791 5794 5797 5800 5803 5805 5807 5807 5809 5810 5811 5812 5815 5818 5822 5824 5827 5830 5832 5834 5837 5839 5841 5844 5846 5849 5852 5854 5856 5858 5859 5861 5862 5864 5866 5868 5870 5872 5873 5876 5878 5879 5881 5883 5885 5887 5888 5890 5891 5893
5769 5770 5769 5770 5772 5772 5774 5776 5779 5780 5781 5783 5787 5789 5790 5792 5795 5797 5801 5802 5802 5804 5806 5805 5806 5810 5813 5816 5819 5823 5824 5826 5829 5832 5834 5836 5839 5842 5844 5847 5850 5851 5853 5855 5856 5858 5860 5862 5863 5865 5867 5869 5871 5873 5874 5876 5878 5880 5882 5883 5885 5887 5888
5765 5766 5766 5767 5768 5768 5769 5772 5774 5776 5777 5779 5784 5786 5784 5787 5790 5794 5796 5797 5798 5800 5799 5799 5802 5806 5807 5808 5813 5818 5819 5820 5824 5827 5829 5832 5835 5836 5839 5843 5845 5845 5847 5850 5852 5854 5856 5857 5858 5860 5862 5864 5866 5868 5869 5871 5873 5875 5877 5878 5880 5882 5884
5762 5763 5764 5765 5764 5764 5766 5768 5770 5772 5772 5775 5779 5779 5779 5782 5787 5789 5791 5793 5794 5793 5792 5794 5797 5800 5802 5803 5807 5812 5816 5818 5821 5823 5825 5827 5829 5830 5834 5837 5838 5838 5842 5846 5847 5849 5851 5852 5853 5855 5858 5859 5861 5862 5864 5866 5868 5870 5872 5873 5875 5877 5879
5759 5760 5761 5761 5760 5760 5763 5764 5765 5767 5769 5771 5772 5772 5774 5778 5781 5783 5785 5787 5787 5786 5788 5790 5790 5792 5798 5800 5800 5805 5811 5814 5816 5818 5820 5822 5823 5825 5828 5830 5831 5833 5837 5840 5841 5843 5845 5846 5848 5851 5853 5854 5856 5857 5858 5860 5862 5865 5867 5869 5870 5871 5873
5755 5756 5757 5756 5755 5757 5760 5760 5761 5763 5765 5766 5766 5768 5771 5774 5776 5778 5779 5779 5779 5781 5785 5786 5784 5787 5794 5796 5795 5800 5806 5809 5811 5813 5814 5815 5817 5819 5822 5823 5826 5829 5831 5833 5835 5837 5839 5841 5843 5845 5847 5849 5851 5852 5853 5855 5857 5859 5861 5863 5864 5866 5867
5752 5752 5753 5752 5752 5754 5756 5757 5757 5759 5760 5761 5763 5765 5767 5769 5771 5773 5773 5773 5774 5777 5780 5781 5780 5784 5790 5791 5791 5795 5799 5801 5804 5806 5807 5809 5811 5813 5816 5818 5821 5824 5825 5826 5828 5830 5832 5835 5837 5839 5841 5843 5845 5846 5848 5850 5851 5853 5856 5857 5859 5860 5862
5748 5748 5747 5747 5749 5751 5752 5752 5753 5755 5757 5758 5759 5761 5762 5764 5766 5767 5767 5767 5769 5773 5776 5777 5777 5780 5784 5785 5786 5789 5791 5793 5796 5799 5802 5804 5805 5807 5809 5812 5815 5817 5818 5820 5822 5824 5826 5829 5831 5833 5835 5837 5839 5840 5842 5844 5845 5847 5849 5852 5854 5855 5857
5744 5743 5743 5744 5746 5747 5748 5748 5751 5752 5752 5753 5754 5755 5757 5759 5760 5760 5760 5762 5765 5767 5770 5771 5771 5773 5776 5778 5780 5782 5784 5786 5789 5793 5796 5798 5799 5801 5803 5806 5808 5810 5811 5814 5816 5817 5819 5822 5824 5826 5829 5831 5832 5834 5836 5837 5839 5841 5843 5846 5848 5850 5851
5739 5740 5740 5740 5741 5742 5743 5744 5747 5747 5747 5748 5749 5750 5752 5754 5755 5755 5756 5758 5761 5762 5763 5764 5765 5767 5769 5771 5773 5775 5778 5779 5782 5785 5788 5791 5793 5795 5797 5799 5801 5803 5805 5807 5809 5810 5812 5814 5817 5819 5822 5824 5826 5827 5829 5831 5832 5834 5837 5839 5842 5844 5845
5735 5735 5736 5736 5737 5737 5738 5740 5741 5742 5742 5743 5744 5745 5746 5749 5751 5751 5752 5754 5756 5756 5757 5758 5760 5761 5763 5765 5766 5769 5771 5773 5775 5778 5781 5784 5786 5788 5790 5792 5795 5796 5798 5800 5802 5803 5805 5807 5809 5812 5814 5816 5818 5820 5822 5823 5825 5828 5830 5832 5835 5837 5839
5730 5731 5732 5732 5733 5733 5734 5735 5736 5737 5737 5737 5739 5740 5741 5743 5745 5746 5747 5748 5750 5751 5752 5753 5755 5756 5758 5760 5761 5763 5765 5767 5768 5771 5774 5776 5779 5781 5783 5785 5788 5790 5791 5793 5795 5797 5798 5800 5802 5804 5806 5808 5810 5812 5814 5816 5818 5820 5823 5825 5827 5830 5832
5725 5726 5727 5727 5728 5728 5729 5730 5731 5732 5731 5732 5733 5734 5735 5737 5739 5740 5741 5742 5744 5746 5747 5748 5750 5751 5753 5755 5757 5758 5760 5762 5763 5765 5766 5769 5771 5773 5776 5778 5781 5783 5784 5786 5788 5790 5791 5793 5795 5796 5798 5800 5802 5804 5806 5808 5810 5813 5815 5817 5820 5822 5824
5721 5721 5721 5721 5722 5723 5723 5724 5725 5726 5726 5727 5729 5730 5731 5731 5732 5734 5735 5736 5738 5740 5742 5743 5745 5746 5748 5750 5752 5754 5755 5757 5758 5759 5761 5763 5764 5766 5768 5771 5773 5775 5777 5779 5781 5783 5784 5786 5788 5789 5790 5792 5793 5795 5797 5799 5801 5804 5807 5809 5811 5813 5815
5716 5716 5716 5716 5717 5718 5718 5719 5721 5721 5722 5723 5724 5725 5726 5727 5727 5728 5729 5731 5732 5734 5735 5737 5738 5740 5741 5744 5746 5748 5750 5752 5753 5754 5756 5757 5758 5759 5761 5763 5765 5767 5769 5771 5773 5775 5777 5778 5780 5781 5783 5784 5785 5786 5788 5790 5793 5795 5798 5800 5803 5805 5806
5711 5711 5711 5711 5712 5713 5713 5714 5715 5716 5717 5718 5719 5720 5721 5722 5722 5723 5724 5725 5727 5728 5729 5731 5732 5734 5735 5738 5740 5741 5743 5745 5747 5748 5749 5751 5752 5753 5754 5755 5757 5758 5760 5762 5764 5766 5768 5770 5772 5773 5775 5776 5777 5777 5779 5781 5783 5786 5788 5791 5794 5796 5798
5705 5706 5706 5706 5706 5707 5709 5710 5710 5711 5712 5713 5714 5715 5715 5716 5717 5718 5718 5720 5722 5723 5724 5725 5726 5728 5730 5732 5733 5735 5737 5739 5741 5742 5743 5744 5745 5746 5747 5749 5750 5751 5752 5754 5755 5757 5759 5761 5763 5764 5766 5767 5768 5769 5770 5772 5774 5776 5779 5781 5784 5787 5789